Location: Lucerne Valley
(34.4439°N, 116.9669°E)
Time: 12:39:27
(UTC-08:00)

Vanguard 1 Rocket - All Passes

Search period start: 18 December 2017 00:00
Search period end: 28 December 2017 00:00
Orbit: 656 x 4222 km, 34.3° (Epoch: 17 December)

Date Brightness Start Highest point End Pass type
(mag) Time Alt. Az. Time Alt. Az. Time Alt. Az.
18 Dec - 02:00:02 10° W 02:09:52 90° S 02:29:56 10° E visible
18 Dec - 04:25:26 10° W 04:39:52 74° SSW 05:04:57 10° ESE visible
18 Dec - 06:53:09 10° W 07:11:07 43° SW 07:34:30 10° SSE visible
18 Dec - 09:31:26 10° WSW 09:41:33 14° SW 09:51:55 10° SSW visible
18 Dec - 22:26:35 10° SSW 22:31:55 37° SE 22:40:54 10° E daylight
19 Dec - 00:49:31 10° WSW 00:57:29 85° S 01:13:50 10° E daylight
19 Dec - 03:14:16 10° W 03:26:10 83° SSW 03:49:09 10° ESE visible
19 Dec - 05:40:32 10° W 05:56:51 55° SSW 06:21:34 10° SE visible
19 Dec - 08:11:51 10° W 08:27:45 24° SW 08:45:49 10° S visible
19 Dec - 21:18:10 10° S 21:21:42 17° SE 21:26:20 10° E daylight
19 Dec - 23:39:20 10° WSW 23:45:49 71° SSE 23:58:33 10° E daylight
20 Dec - 02:03:29 10° W 02:13:08 89° S 02:32:52 10° E visible
20 Dec - 04:28:49 10° WNW 04:42:49 67° SSW 05:07:14 10° SE visible
20 Dec - 06:56:59 10° W 07:13:43 35° SW 07:35:30 10° SSE visible
20 Dec - 22:29:32 10° SW 22:34:53 47° SSE 22:44:09 10° E daylight
21 Dec - 00:52:58 10° W 01:00:46 89° S 01:16:49 10° E daylight
21 Dec - 03:17:41 10° W 03:29:17 78° SSW 03:51:47 10° ESE visible
21 Dec - 05:44:04 10° W 05:59:37 47° SSW 06:23:08 10° SSE visible
21 Dec - 08:17:33 10° W 08:30:22 18° SW 08:44:46 10° S visible
21 Dec - 21:20:26 10° SSW 21:24:31 24° SE 21:30:15 10° E daylight
21 Dec - 23:42:41 10° WSW 23:49:04 79° SSE 00:01:35 10° E daylight
22 Dec - 02:06:55 10° W 02:16:23 86° S 02:35:44 10° ESE visible
22 Dec - 04:32:15 10° W 04:45:46 59° SSW 05:09:15 10° SE visible
22 Dec - 07:01:16 10° W 07:16:24 28° SW 07:35:55 10° S visible
22 Dec - 22:32:42 10° SW 22:38:00 58° SSE 22:47:20 10° E daylight
23 Dec - 00:56:25 10° W 01:04:05 90° SSW 01:19:50 10° E daylight
23 Dec - 03:21:05 10° W 03:32:23 70° SSW 03:54:12 10° ESE visible
23 Dec - 05:47:49 10° W 06:02:27 39° SSW 06:24:17 10° SSE visible
23 Dec - 08:26:09 10° WSW 08:33:13 12° SW 08:40:47 10° SSW visible
23 Dec - 21:23:07 10° SSW 21:27:28 33° SSE 21:33:50 10° E daylight
23 Dec - 23:46:07 10° W 23:52:23 86° S 00:04:39 10° E daylight
24 Dec - 02:10:21 10° W 02:19:37 80° SSW 02:38:31 10° ESE visible
24 Dec - 04:35:46 10° W 04:48:44 50° SSW 05:10:56 10° SE visible
24 Dec - 07:06:16 10° W 07:19:14 21° SW 07:35:27 10° S visible
24 Dec - 20:14:35 10° S 20:17:14 15° SE 20:20:15 10° ESE daylight
24 Dec - 22:35:59 10° WSW 22:41:14 70° SSE 22:50:28 10° E daylight
25 Dec - 00:59:53 10° W 01:07:25 88° S 01:22:49 10° E daylight
25 Dec - 03:24:32 10° W 03:35:29 61° SSW 03:56:24 10° SE visible
25 Dec - 05:51:54 10° W 06:05:22 31° SW 06:24:54 10° SSE visible
25 Dec - 21:26:06 10° SW 21:30:34 44° SSE 21:37:13 10° E daylight
25 Dec - 23:49:34 10° W 23:55:45 89° S 00:07:44 10° E daylight
26 Dec - 02:13:47 10° W 02:22:49 73° SSW 02:41:09 10° ESE visible
26 Dec - 04:39:28 10° W 04:51:46 41° SSW 05:12:16 10° SSE visible
26 Dec - 07:12:49 10° WSW 07:22:14 15° SW 07:33:22 10° SSW visible
26 Dec - 20:16:44 10° SSW 20:20:13 22° SE 20:24:23 10° E daylight
26 Dec - 22:39:22 10° WSW 22:44:32 80° SSE 22:53:38 10° E daylight
27 Dec - 01:03:21 10° W 01:10:44 83° S 01:25:45 10° ESE daylight
27 Dec - 03:28:03 10° W 03:38:37 52° SSW 03:58:19 10° SE visible
27 Dec - 05:56:31 10° W 06:08:24 24° SW 06:24:50 10° S visible
27 Dec - 21:29:16 10° WSW 21:33:46 57° SSE 21:40:31 10° E daylight
